Location: Fontevrault
(47.1823°N, 0.0493°E)
Time: 08:48:24
(UTC+00:00)

Cosmos 1340 - Pass Details

Date: 16 June 2021
Orbit: 498 x 504 km, 81.2° (Epoch: 26 July)

Event Time Altitude Azimuth Distance (km) Brightness Sun altitude
Exits shadow 22:26:11 20° 211° (SSW) 1,218 4.2 -16.3°
Maximum altitude 22:28:37 55° 284° (WNW) 612 3.2 -16.4°
Drops below altitude 10° 22:32:20 10° 3° (N) 1,727 6.4 -16.7°
Sets 22:34:31 0° 8° (N) 2,618 7.4 -16.8°
